Location: Croydon
(51.3762°N, 0.0982°W)
Time: 18:18:10
(UTC+00:00)

Altair - Pass Details

Date: 23 November 2019
Orbit: 1502 x 1682 km, 47.2° (Epoch: 05 December)

Event Time Altitude Azimuth Distance (km) Brightness Sun altitude
Rises 08:31:20 0° 286° (WNW) 4,650 9.5 6.6°
Reaches altitude 10° 08:34:52 10° 276° (W) 3,678 9.1 6.9°
Maximum altitude 08:42:14 28° 222° (SW) 2,586 8.9 7.7°
Drops below altitude 10° 08:49:46 10° 169° (S) 3,760 10.8 8.5°
Sets 08:53:27 0° 158° (SSE) 4,770 11.7 8.9°
